Torna al catalogo

PIONEER 6

AttivoScienzaHCO
NORAD 1841·PAYLOAD·🇺🇸 United States

Lanciato Dec 16, 1965 da Cape Canaveral Space Force Station

Loading…

TLE

ObsoletoSource: Space-Track

Epoca: Mar 3, 1969, 05:45 UTC

1 01841U 65105  A 69062.24016186  .00026931 +00000-0 +00000-0 0  9993
2 01841 056.0255 139.7498 0005710 268.1781 091.8503 15.31706145201334

Traccia PIONEER 6 in tempo reale con AllMySat

Download on the App Store